CZ-6A R/B, 57831

Orbit data source: Space-Track

CZ-6A R/B, 57831 is space debris in LEO originally from a launch on Sun, 10 Sep 2023 UTC launched from the Taiyaun Space Center, China (TSC). Debris objects in space refer to the collection of defunct objects orbiting the Earth. Examples of debris include non-operational satellites, rocket bodies, and fragments generated from explosions, collisions, or faulty payload assembly.

Loading next visibility...
Identifier
57831, 2023-139B
Orbit
LEO
Country
Flag of CNCN / PRC
Related business
Manufacturer
SAST
Mission
Spacecraft
Bus & Motor
CZ-6A STAGE 2, YF-115
Mass
~6,000 kg wet, ~6,000 kg dry
Launch date (UTC)
2023-09-10 (3 years ago)
Launch vehicle
Unknown
Launch site
Taiyaun Space Center, China (TSC)
Object type
Payload
Rocket body
Debris
Shape & HBR
Unknown shape, 5.5 m
Radar Cross Section
Large (>1 m²)

Expand to show TLE details & history
Last TLE update: 2 days ago

TLE from 2 days ago
0 CZ-6A R/B
1 57831U 23139B   26171.28860030  .00000270  00000-0  10146-3 0  9990
2 57831  85.9890 247.2241 0010755 240.1247 119.8877 14.27739679144639
Epoch: 2026-06-20T06:55Z
TLE epoch observation values (Epoch: 2026-06-20T06:55:35.065Z)
Latitude
-0°
Longitude
-125.17737°
Altitude
806.186 km
Speed
7.448 km/s
True Right ascension
16h 28m 53s
True Declination
0° 00' 00"
Sunlit
Object was in full shadow at epoch
Visualization orbit readout
Latitude
Unknown
Longitude
Unknown
Altitude
Unknown
Speed
Unknown
Apparent Right ascension
Unknown
Apparent Declination
Unknown
Sunlit
N/A
Visualization observer readout
Local Sidereal Time
21:33:30
Azimuth
Unknown
Elevation
Unknown
Doppler factor
Unknown
Orbital elements
Apogee altitude
803.995 km
Perigee altitude
788.562 km
Semi-major axis
7,174.415 km
Eccentricity
0.00108
Inclination
85.989°
RAAN
247.2241°
Arg. of periapsis
240.1247°
True anomaly
119.99448°
Mean anomaly
119.8877°
Eccentric anomaly
119.9411°
Mean motion
3.5716 °/min
Orbital period
100.8 mins
BSTAR
0.00010146
Loading maneuver chart data...
Computing Atmospheric mass density...
Loading historical data...
Loading historical data...
Loading historical data...
Loading historical data...
Loading historical data...
Loading historical data...
Loading historical data...
Other satellites on launch #139 in the year 2023 (2023-09-10 UTC)

Documentation

Showing up to 5 results
|